| time (UTC) | temp C | wind direction | speed KPH | gust KPH | rain 1hr cm | rain 24hr cm | rain mn cm | humidity % | barometer mb |
| 20260506103742 | 13 | 16 | 0.0 | 0.0 | 0.00 | 0.00 | 0.00 | 74 | |
| 20260506103242 | 13 | 16 | 0.0 | 0.0 | 0.00 | 0.00 | 0.00 | 73 | |
| 20260506103043 | 13 | 54 | 3.2 | 12.9 | 0.00 | 0.00 | 0.00 | 80 | 1006.6 |
| 20260506102742 | 13 | 16 | 0.0 | 0.0 | 0.00 | 0.00 | 0.00 | 73 | |
| 20260506102242 | 13 | 16 | 0.0 | 0.0 | 0.00 | 0.00 | 0.00 | 73 | |
| 20260506101742 | 13 | 16 | 0.0 | 0.0 | 0.00 | 0.00 | 0.00 | 73 | |
| 20260506101535 | 13 | 111 | 0.0 | 11.3 | 0.00 | 0.00 | 0.00 | 79 | 1007.1 |
| 20260506101242 | 13 | 16 | 0.0 | 0.0 | 0.00 | 0.00 | 0.00 | 72 | |
| 20260506100742 | 13 | 16 | 0.0 | 0.0 | 0.00 | 0.00 | 0.00 | 72 | |
| 20260506100242 | 13 | 16 | 0.0 | 0.0 | 0.00 | 0.00 | 0.00 | 72 | |
| 20260506100037 | 13 | 33 | 4.8 | 11.3 | 0.00 | 0.00 | 0.00 | 78 | 1006.7 |
| 20260506095742 | 14 | 16 | 0.0 | 0.0 | 0.00 | 0.00 | 0.00 | 72 | |
| 20260506095242 | 14 | 16 | 0.0 | 0.0 | 0.00 | 0.00 | 0.00 | 72 | |
| 20260506094742 | 14 | 16 | 0.0 | 0.0 | 0.00 | 0.00 | 0.00 | 71 | |
| 20260506094530 | 14 | 41 | 4.8 | 11.3 | 0.00 | 0.00 | 0.00 | 78 | 1006.6 |
| 20260506094242 | 14 | 16 | 0.0 | 0.0 | 0.00 | 0.00 | 0.00 | 71 | |
| 20260506093742 | 14 | 16 | 0.0 | 0.0 | 0.00 | 0.00 | 0.00 | 71 | |
| 20260506093242 | 15 | 16 | 0.0 | 0.0 | 0.00 | 0.00 | 0.00 | 71 | |
| 20260506093028 | 14 | 36 | 1.6 | 11.3 | 0.00 | 0.00 | 0.00 | 78 | 1006.4 |
| 20260506092742 | 15 | 16 | 0.0 | 0.0 | 0.00 | 0.00 | 0.00 | 71 | |
| 20260506092242 | -8 | 16 | 0.0 | 0.0 | 0.00 | 0.00 | 0.00 | 70 | |
| 20260506091742 | -8 | 16 | 0.0 | 0.0 | 0.00 | 0.00 | 0.00 | 70 | |
| 20260506091525 | 14 | 50 | 3.2 | 11.3 | 0.00 | 0.00 | 0.00 | 77 | 1005.7 |
| 20260506091242 | -8 | 16 | 0.0 | 0.0 | 0.00 | 0.00 | 0.00 | 70 | |
| 20260506090742 | -8 | 16 | 0.0 | 0.0 | 0.00 | 0.00 | 0.00 | 70 | |
| 20260506090242 | -8 | 16 | 0.0 | 0.0 | 0.00 | 0.00 | 0.00 | 69 | |
| 20260506090023 | 15 | 39 | 0.0 | 3.2 | 0.00 | 0.00 | 0.00 | 77 | 1005.9 |
| 20260506085932 | -9 | 16 | 0.0 | 0.0 | 0.00 | 0.00 | 0.00 | 69 | |
| 20260506085742 | -9 | 16 | 0.0 | 0.0 | 0.00 | 0.00 | 0.00 | 69 | |
| 20260506085242 | -8 | 16 | 0.0 | 0.0 | 0.00 | 0.00 | 0.00 | 69 | |
| 20260506084742 | -8 | 16 | 0.0 | 0.0 | 0.00 | 0.00 | 0.00 | 69 | |
| 20260506084520 | 15 | 36 | 3.2 | 14.5 | 0.00 | 0.00 | 0.00 | 76 | 1005.8 |
| 20260506084242 | -9 | 16 | 0.0 | 0.0 | 0.00 | 0.00 | 0.00 | 69 | |
| 20260506083742 | -8 | 16 | 0.0 | 0.0 | 0.00 | 0.00 | 0.00 | 68 | |
| 20260506083242 | -7 | 16 | 0.0 | 0.0 | 0.00 | 0.00 | 0.00 | 68 | |
| 20260506083015 | 16 | 32 | 3.2 | 9.7 | 0.00 | 0.00 | 0.00 | 75 | 1006.0 |
| 20260506082742 | -7 | 16 | 0.0 | 0.0 | 0.00 | 0.00 | 0.00 | 68 | |
| 20260506082242 | -7 | 16 | 0.0 | 0.0 | 0.00 | 0.00 | 0.00 | 67 | |
| 20260506081742 | -9 | 16 | 0.0 | 0.0 | 0.00 | 0.00 | 0.00 | 68 | |
| 20260506081513 | 16 | 30 | 3.2 | 11.3 | 0.00 | 0.00 | 0.00 | 74 | 1005.9 |
| 20260506081242 | -11 | 16 | 0.0 | 0.0 | 0.00 | 0.00 | 0.00 | 67 | |
| 20260506080742 | -12 | 16 | 0.0 | 0.0 | 0.00 | 0.00 | 0.00 | 67 | |
| 20260506080242 | -7 | 16 | 0.0 | 0.0 | 0.00 | 0.00 | 0.00 | 66 | |
| 20260506073242 | -8 | 16 | 0.0 | 0.0 | 0.00 | 0.00 | 0.00 | 64 | |
| 20260506073004 | 17 | 24 | 1.6 | 14.5 | 0.00 | 0.00 | 0.00 | 73 | 1005.8 |
| 20260506072742 | -8 | 16 | 0.0 | 0.0 | 0.00 | 0.00 | 0.00 | 64 | |
| 20260506072242 | -11 | 16 | 0.0 | 0.0 | 0.00 | 0.00 | 0.00 | 64 | |
| 20260506071742 | -10 | 16 | 0.0 | 0.0 | 0.00 | 0.00 | 0.00 | 63 | |
| 20260506071502 | 17 | 49 | 1.6 | 11.3 | 0.00 | 0.00 | 0.00 | 72 | 1005.9 |
| 20260506071242 | -11 | 16 | 0.0 | 0.0 | 0.00 | 0.00 | 0.00 | 62 | |
| 20260506070742 | -13 | 16 | 0.0 | 0.0 | 0.00 | 0.00 | 0.00 | 62 | |
| 20260506070243 | -12 | 16 | 0.0 | 0.0 | 0.00 | 0.00 | 0.00 | 62 | |
| 20260506070105 | 18 | 34 | 0.0 | 4.8 | 0.00 | 0.00 | 0.00 | 72 | 1005.9 |
| 20260506062242 | -14 | 16 | 0.0 | 0.0 | 0.00 | 0.00 | 0.00 | 57 | |
| 20260506061742 | -8 | 16 | 0.0 | 0.0 | 0.00 | 0.00 | 0.00 | 57 | |
| 20260506061550 | 19 | 30 | 0.0 | 3.2 | 0.00 | 0.00 | 0.00 | 67 | 1004.9 |
| 20260506061243 | -12 | 16 | 0.0 | 0.0 | 0.00 | 0.00 | 0.00 | 56 | |
| 20260506060743 | -11 | 16 | 0.0 | 0.0 | 0.00 | 0.00 | 0.00 | 56 | |
| 20260506060243 | -12 | 16 | 0.0 | 0.0 | 0.00 | 0.00 | 0.00 | 55 | |
| 20260506051243 | -15 | 16 | 0.0 | 0.0 | 0.00 | 0.00 | 0.00 | 47 | |
| 20260506050743 | -15 | 16 | 0.0 | 0.0 | 0.00 | 0.00 | 0.00 | 46 | |
| 20260506050243 | -16 | 16 | 0.0 | 0.0 | 0.00 | 0.00 | 0.00 | 45 | |
| 20260506044743 | -17 | 16 | 0.0 | 0.0 | 0.00 | 0.00 | 0.00 | 42 | |
| 20260506044531 | 21 | 49 | 0.0 | 3.2 | 0.00 | 0.00 | 0.00 | 48 | 1004.5 |
| 20260506044428 | -17 | 16 | 0.0 | 0.0 | 0.00 | 0.00 | 0.00 | 41 | |
| 20260506044243 | -17 | 16 | 0.0 | 0.0 | 0.00 | 0.00 | 0.00 | 41 | |
| 20260506043743 | -15 | 16 | 0.0 | 0.0 | 0.00 | 0.00 | 0.00 | 41 | |
| 20260506043243 | -17 | 16 | 0.0 | 0.0 | 0.00 | 0.00 | 0.00 | 40 | |
| 20260506043030 | 21 | 56 | 0.0 | 0.0 | 0.00 | 0.00 | 0.00 | 47 | 1004.4 |
| 20260506042743 | -15 | 16 | 0.0 | 0.0 | 0.00 | 0.00 | 0.00 | 40 | |
| 20260506042641 | -15 | 16 | 0.0 | 0.0 | 0.00 | 0.00 | 0.00 | 40 | |
| 20260506042243 | -15 | 16 | 0.0 | 0.0 | 0.00 | 0.00 | 0.00 | 40 | |
| 20260506041743 | -17 | 16 | 0.0 | 0.0 | 0.00 | 0.00 | 0.00 | 39 | |
| 20260506041529 | 22 | 308 | 0.0 | 0.0 | 0.00 | 0.00 | 0.00 | 47 | 1004.4 |
| 20260506041243 | -8 | 16 | 0.0 | 0.0 | 0.00 | 0.00 | 0.00 | 38 | |
| 20260506040743 | -8 | 16 | 0.0 | 0.0 | 0.00 | 0.00 | 0.00 | 38 | |
| 20260506040243 | -7 | 16 | 0.0 | 0.0 | 0.00 | 0.00 | 0.00 | 37 | |
| 20260506040029 | 22 | 308 | 0.0 | 0.0 | 0.00 | 0.00 | 0.00 | 42 | 1004.1 |
| 20260506035743 | -7 | 16 | 0.0 | 0.0 | 0.00 | 0.00 | 0.00 | 36 | |
| 20260506035243 | -9 | 16 | 0.0 | 0.0 | 0.00 | 0.00 | 0.00 | 36 | |
| 20260506034743 | -14 | 16 | 0.0 | 0.0 | 0.00 | 0.00 | 0.00 | 35 | |
| 20260506034530 | 23 | 308 | 0.0 | 0.0 | 0.00 | 0.00 | 0.00 | 40 | 1004.0 |
| 20260506034243 | -15 | 16 | 0.0 | 0.0 | 0.00 | 0.00 | 0.00 | 35 | |
| 20260506033743 | -15 | 16 | 0.0 | 0.0 | 0.00 | 0.00 | 0.00 | 34 | |
| 20260506033243 | -16 | 16 | 0.0 | 0.0 | 0.00 | 0.00 | 0.00 | 34 | |
| 20260506033027 | 23 | 308 | 0.0 | 0.0 | 0.00 | 0.00 | 0.00 | 39 | 1004.1 |
| 20260506032743 | -17 | 16 | 0.0 | 0.0 | 0.00 | 0.00 | 0.00 | 33 | |
| 20260506032243 | 23 | 16 | 0.0 | 0.0 | 0.00 | 0.00 | 0.00 | 33 | |
| 20260506031743 | 23 | 16 | 0.0 | 0.0 | 0.00 | 0.00 | 0.00 | 32 | |
| 20260506031527 | 24 | 308 | 0.0 | 0.0 | 0.00 | 0.00 | 0.00 | 37 | 1004.0 |
| 20260506031243 | 23 | 16 | 0.0 | 0.0 | 0.00 | 0.00 | 0.00 | 31 | |
| 20260506030743 | 24 | 16 | 0.0 | 0.0 | 0.00 | 0.00 | 0.00 | 31 | |
| 20260506030243 | 24 | 16 | 0.0 | 0.0 | 0.00 | 0.00 | 0.00 | 30 | |
| 20260506030036 | 25 | 308 | 0.0 | 0.0 | 0.00 | 0.00 | 0.00 | 35 | 1003.7 |
| 20260506025743 | 23 | 16 | 0.0 | 0.0 | 0.00 | 0.00 | 0.00 | 29 | |
| 20260506025243 | 25 | 16 | 0.0 | 0.0 | 0.00 | 0.00 | 0.00 | 29 | |
| 20260506024743 | 25 | 16 | 0.0 | 0.0 | 0.00 | 0.00 | 0.00 | 28 | |
| 20260506024549 | 25 | 308 | 0.0 | 0.0 | 0.00 | 0.00 | 0.00 | 32 | 1003.7 |
| 20260506024243 | 24 | 16 | 0.0 | 0.0 | 0.00 | 0.00 | 0.00 | 28 | |
| 20260506023743 | 25 | 16 | 0.0 | 0.0 | 0.00 | 0.00 | 0.00 | 28 | |
| 20260506023243 | 25 | 16 | 0.0 | 0.0 | 0.00 | 0.00 | 0.00 | 27 | |
| 20260506023023 | 26 | 308 | 0.0 | 0.0 | 0.00 | 0.00 | 0.00 | 31 | 1003.4 |
| 20260506022743 | 25 | 16 | 0.0 | 0.0 | 0.00 | 0.00 | 0.00 | 26 | |
| 20260506022243 | 25 | 16 | 0.0 | 0.0 | 0.00 | 0.00 | 0.00 | 26 | |
| 20260506021743 | -17 | 16 | 0.0 | 0.0 | 0.00 | 0.00 | 0.00 | 26 | |
| 20260506021524 | 26 | 308 | 0.0 | 0.0 | 0.00 | 0.00 | 0.00 | 29 | 1003.3 |
| 20260506021448 | -17 | 16 | 0.0 | 0.0 | 0.00 | 0.00 | 0.00 | 25 | |
| 20260506021243 | -17 | 16 | 0.0 | 0.0 | 0.00 | 0.00 | 0.00 | 25 | |
| 20260506020913 | 26 | 16 | 0.0 | 0.0 | 0.00 | 0.00 | 0.00 | 25 | |
| 20260506020743 | 26 | 16 | 0.0 | 0.0 | 0.00 | 0.00 | 0.00 | 25 | |
| 20260506020243 | 26 | 16 | 0.0 | 0.0 | 0.00 | 0.00 | 0.00 | 25 | |
| 20260506020023 | 27 | 326 | 0.0 | 4.8 | 0.00 | 0.00 | 0.00 | 27 | 1003.0 |
| 20260506015743 | 26 | 16 | 0.0 | 0.0 | 0.00 | 0.00 | 0.00 | 24 | |
| 20260506015243 | 26 | 16 | 0.0 | 0.0 | 0.00 | 0.00 | 0.00 | 24 | |
| 20260506014743 | 26 | 16 | 0.0 | 0.0 | 0.00 | 0.00 | 0.00 | 24 | |
| 20260506014522 | 27 | 313 | 0.0 | 3.2 | 0.00 | 0.00 | 0.00 | 26 | 1002.9 |
| 20260506014243 | 27 | 16 | 0.0 | 0.0 | 0.00 | 0.00 | 0.00 | 24 | |
| 20260506013743 | 27 | 16 | 0.0 | 0.0 | 0.00 | 0.00 | 0.00 | 24 | |
| 20260506013243 | 27 | 16 | 0.0 | 0.0 | 0.00 | 0.00 | 0.00 | 24 | |
| 20260506013034 | 28 | 290 | 0.0 | 3.2 | 0.00 | 0.00 | 0.00 | 25 | 1002.8 |
| 20260506012743 | 27 | 16 | 0.0 | 0.0 | 0.00 | 0.00 | 0.00 | 24 | |
| 20260506012243 | 27 | 16 | 0.0 | 0.0 | 0.00 | 0.00 | 0.00 | 24 | |
| 20260506011743 | 27 | 16 | 0.0 | 0.0 | 0.00 | 0.00 | 0.00 | 24 | |
| 20260506011521 | 29 | 328 | 1.6 | 11.3 | 0.00 | 0.00 | 0.00 | 25 | 1002.4 |
| 20260506011243 | 27 | 16 | 0.0 | 0.0 | 0.00 | 0.00 | 0.00 | 24 | |
| 20260506010743 | 28 | 16 | 0.0 | 0.0 | 0.00 | 0.00 | 0.00 | 25 | |
| 20260506010243 | 28 | 16 | 0.0 | 0.0 | 0.00 | 0.00 | 0.00 | 26 | |
| 20260506010025 | 29 | 325 | 1.6 | 8.0 | 0.00 | 0.00 | 0.00 | 27 | 1002.4 |
| 20260506005743 | 28 | 16 | 0.0 | 0.0 | 0.00 | 0.00 | 0.00 | 26 | |
| 20260506005243 | 29 | 16 | 0.0 | 0.0 | 0.00 | 0.00 | 0.00 | 27 | |
| 20260506004743 | 28 | 16 | 0.0 | 0.0 | 0.00 | 0.00 | 0.00 | 27 | |
| 20260506004520 | 30 | 193 | 0.0 | 1.6 | 0.00 | 0.00 | 0.00 | 31 | 1002.0 |
| 20260506004243 | 28 | 16 | 0.0 | 0.0 | 0.00 | 0.00 | 0.00 | 27 | |
| 20260506003743 | 28 | 16 | 0.0 | 0.0 | 0.00 | 0.00 | 0.00 | 26 | |
| 20260506003244 | 29 | 16 | 0.0 | 0.0 | 0.00 | 0.00 | 0.00 | 27 | |
| 20260506003020 | 30 | 191 | 0.0 | 0.0 | 0.00 | 0.00 | 0.00 | 30 | 1001.8 |
| 20260506002744 | 28 | 16 | 0.0 | 0.0 | 0.00 | 0.00 | 0.00 | 27 | |
| 20260506002244 | 28 | 16 | 0.0 | 0.0 | 0.00 | 0.00 | 0.00 | 26 | |
| 20260506001744 | 28 | 16 | 0.0 | 0.0 | 0.00 | 0.00 | 0.00 | 25 | |
| 20260506001522 | 30 | 191 | 0.0 | 3.2 | 0.00 | 0.00 | 0.00 | 29 | 1001.6 |
| 20260506001244 | 29 | 16 | 0.0 | 0.0 | 0.00 | 0.00 | 0.00 | 24 | |
| 20260506000744 | 30 | 16 | 0.0 | 0.0 | 0.00 | 0.00 | 0.00 | 24 | |
| 20260506000244 | 30 | 16 | 0.0 | 0.0 | 0.00 | 0.00 | 0.00 | 23 | |
| 20260506000019 | 30 | 190 | 0.0 | 3.2 | 0.00 | 0.00 | 0.00 | 26 | 1001.6 |
| 20260505235744 | 29 | 16 | 0.0 | 0.0 | 0.00 | 0.00 | 0.00 | 23 | |
| 20260505235244 | 29 | 16 | 0.0 | 0.0 | 0.00 | 0.00 | 0.00 | 23 | |
| 20260505234744 | 30 | 16 | 0.0 | 0.0 | 0.00 | 0.00 | 0.00 | 23 | |
| 20260505234519 | 31 | 192 | 0.0 | 6.4 | 0.00 | 0.00 | 0.00 | 26 | 1001.5 |
| 20260505234244 | 30 | 16 | 0.0 | 0.0 | 0.00 | 0.00 | 0.00 | 22 | |
| 20260505233744 | 29 | 16 | 0.0 | 0.0 | 0.00 | 0.00 | 0.00 | 22 | |
| 20260505233244 | 30 | 16 | 0.0 | 0.0 | 0.00 | 0.00 | 0.00 | 22 | |
| 20260505233116 | 31 | 175 | 0.0 | 3.2 | 0.00 | 0.00 | 0.00 | 24 | 1001.6 |
| 20260505232744 | 30 | 16 | 0.0 | 0.0 | 0.00 | 0.00 | 0.00 | 21 | |
| 20260505232244 | 30 | 16 | 0.0 | 0.0 | 0.00 | 0.00 | 0.00 | 21 | |
| 20260505231744 | 31 | 16 | 0.0 | 0.0 | 0.00 | 0.00 | 0.00 | 21 | |
| 20260505231516 | 32 | 203 | 1.6 | 9.7 | 0.00 | 0.00 | 0.00 | 23 | 1001.6 |
| 20260505231244 | 31 | 16 | 0.0 | 0.0 | 0.00 | 0.00 | 0.00 | 20 | |
| 20260505230744 | 31 | 16 | 0.0 | 0.0 | 0.00 | 0.00 | 0.00 | 21 | |
| 20260505230244 | 31 | 16 | 0.0 | 0.0 | 0.00 | 0.00 | 0.00 | 20 | |
| 20260505230034 | 32 | 277 | 1.6 | 8.0 | 0.00 | 0.00 | 0.00 | 22 | 1001.5 |
| 20260505225744 | 31 | 16 | 0.0 | 0.0 | 0.00 | 0.00 | 0.00 | 21 | |
| 20260505225244 | 31 | 16 | 0.0 | 0.0 | 0.00 | 0.00 | 0.00 | 21 | |
| 20260505224744 | 31 | 16 | 0.0 | 0.0 | 0.00 | 0.00 | 0.00 | 21 | |
| 20260505224515 | 33 | 309 | 1.6 | 11.3 | 0.00 | 0.00 | 0.00 | 23 | 1001.7 |
| 20260505224244 | 30 | 16 | 0.0 | 0.0 | 0.00 | 0.00 | 0.00 | 21 | |
| 20260505223744 | 31 | 16 | 0.0 | 0.0 | 0.00 | 0.00 | 0.00 | 21 | |
| 20260505223244 | 31 | 16 | 0.0 | 0.0 | 0.00 | 0.00 | 0.00 | 21 | |
| 20260505223013 | 33 | 251 | 3.2 | 9.7 | 0.00 | 0.00 | 0.00 | 23 | 1001.7 |
| 20260505222744 | 31 | 16 | 0.0 | 0.0 | 0.00 | 0.00 | 0.00 | 21 | |
| 20260505222244 | 31 | 16 | 0.0 | 0.0 | 0.00 | 0.00 | 0.00 | 21 | |
| 20260505221744 | 31 | 16 | 0.0 | 0.0 | 0.00 | 0.00 | 0.00 | 21 | |
| 20260505221513 | 32 | 292 | 0.0 | 9.7 | 0.00 | 0.00 | 0.00 | 23 | 1001.8 |
| 20260505221244 | 31 | 16 | 0.0 | 0.0 | 0.00 | 0.00 | 0.00 | 21 | |
| 20260505220744 | 30 | 16 | 0.0 | 0.0 | 0.00 | 0.00 | 0.00 | 21 | |
| 20260505220244 | 31 | 16 | 0.0 | 0.0 | 0.00 | 0.00 | 0.00 | 21 | |
| 20260505220012 | 32 | 244 | 3.2 | 16.1 | 0.00 | 0.00 | 0.00 | 22 | 1001.8 |
| 20260505215744 | 32 | 16 | 0.0 | 0.0 | 0.00 | 0.00 | 0.00 | 21 | |
| 20260505215244 | 31 | 16 | 0.0 | 0.0 | 0.00 | 0.00 | 0.00 | 21 | |
| 20260505214744 | 31 | 16 | 0.0 | 0.0 | 0.00 | 0.00 | 0.00 | 21 | |
| 20260505214511 | 33 | 319 | 0.0 | 16.1 | 0.00 | 0.00 | 0.00 | 22 | 1001.9 |
| 20260505214244 | 31 | 16 | 0.0 | 0.0 | 0.00 | 0.00 | 0.00 | 21 | |
| 20260505213744 | 31 | 16 | 0.0 | 0.0 | 0.00 | 0.00 | 0.00 | 22 | |
| 20260505213413 | 31 | 16 | 0.0 | 0.0 | 0.00 | 0.00 | 0.00 | 21 | |
| 20260505213244 | 31 | 16 | 0.0 | 0.0 | 0.00 | 0.00 | 0.00 | 21 | |
| 20260505213009 | 33 | 296 | 3.2 | 14.5 | 0.00 | 0.00 | 0.00 | 22 | 1001.8 |
| 20260505212744 | 31 | 16 | 0.0 | 0.0 | 0.00 | 0.00 | 0.00 | 22 | |
| 20260505212244 | 31 | 16 | 0.0 | 0.0 | 0.00 | 0.00 | 0.00 | 22 | |
| 20260505211744 | 32 | 16 | 0.0 | 0.0 | 0.00 | 0.00 | 0.00 | 21 | |
| 20260505211505 | 33 | 327 | 6.4 | 19.3 | 0.00 | 0.00 | 0.00 | 22 | 1002.0 |
| 20260505211244 | 32 | 16 | 0.0 | 0.0 | 0.00 | 0.00 | 0.00 | 22 | |
| 20260505210744 | 33 | 16 | 0.0 | 0.0 | 0.00 | 0.00 | 0.00 | 23 | |
| 20260505210244 | 32 | 16 | 0.0 | 0.0 | 0.00 | 0.00 | 0.00 | 24 | |
| 20260505210004 | 34 | 309 | 1.6 | 12.9 | 0.00 | 0.00 | 0.00 | 23 | 1002.1 |
| 20260505205744 | 32 | 16 | 0.0 | 0.0 | 0.00 | 0.00 | 0.00 | 24 | |
| 20260505205244 | 32 | 16 | 0.0 | 0.0 | 0.00 | 0.00 | 0.00 | 24 | |
| 20260505204744 | 32 | 16 | 0.0 | 0.0 | 0.00 | 0.00 | 0.00 | 26 | |
| 20260505204502 | 33 | 273 | 1.6 | 9.7 | 0.00 | 0.00 | 0.00 | 26 | 1002.3 |
| 20260505204244 | 31 | 16 | 0.0 | 0.0 | 0.00 | 0.00 | 0.00 | 26 | |
| 20260505203744 | 32 | 16 | 0.0 | 0.0 | 0.00 | 0.00 | 0.00 | 26 | |
| 20260505203244 | 32 | 16 | 0.0 | 0.0 | 0.00 | 0.00 | 0.00 | 27 | |
| 20260505203117 | 33 | 328 | 3.2 | 12.9 | 0.00 | 0.00 | 0.00 | 25 | 1002.4 |
| 20260505202744 | 32 | 16 | 0.0 | 0.0 | 0.00 | 0.00 | 0.00 | 27 | |
| 20260505202244 | 32 | 16 | 0.0 | 0.0 | 0.00 | 0.00 | 0.00 | 27 | |
| 20260505201744 | 31 | 16 | 0.0 | 0.0 | 0.00 | 0.00 | 0.00 | 28 | |
| 20260505201556 | 33 | 301 | 0.0 | 9.7 | 0.00 | 0.00 | 0.00 | 26 | 1002.4 |
| 20260505201244 | 31 | 16 | 0.0 | 0.0 | 0.00 | 0.00 | 0.00 | 29 | |
| 20260505200744 | 31 | 16 | 0.0 | 0.0 | 0.00 | 0.00 | 0.00 | 28 | |
| 20260505200244 | 31 | 16 | 0.0 | 0.0 | 0.00 | 0.00 | 0.00 | 29 | |
| 20260505200059 | 32 | 242 | 1.6 | 17.7 | 0.00 | 0.00 | 0.00 | 28 | 1002.6 |
| 20260505195744 | 31 | 16 | 0.0 | 0.0 | 0.00 | 0.00 | 0.00 | 29 | |
| 20260505195244 | 31 | 16 | 0.0 | 0.0 | 0.00 | 0.00 | 0.00 | 30 | |
| 20260505194744 | 32 | 16 | 0.0 | 0.0 | 0.00 | 0.00 | 0.00 | 31 | |
| 20260505194607 | 32 | 311 | 3.2 | 14.5 | 0.00 | 0.00 | 0.00 | 29 | 1002.8 |
| 20260505194244 | 31 | 16 | 0.0 | 0.0 | 0.00 | 0.00 | 0.00 | 31 | |
| 20260505193744 | 30 | 16 | 0.0 | 0.0 | 0.00 | 0.00 | 0.00 | 31 | |
| 20260505193309 | 31 | 16 | 0.0 | 0.0 | 0.00 | 0.00 | 0.00 | 33 | |
| 20260505193244 | 31 | 16 | 0.0 | 0.0 | 0.00 | 0.00 | 0.00 | 32 | |
| 20260505193052 | 32 | 316 | 1.6 | 8.0 | 0.00 | 0.00 | 0.00 | 30 | 1002.8 |
| 20260505192744 | 30 | 16 | 0.0 | 0.0 | 0.00 | 0.00 | 0.00 | 33 | |
| 20260505192244 | 31 | 16 | 0.0 | 0.0 | 0.00 | 0.00 | 0.00 | 33 | |
| 20260505191744 | 31 | 16 | 0.0 | 0.0 | 0.00 | 0.00 | 0.00 | 34 | |
| 20260505191551 | 32 | 300 | 1.6 | 9.7 | 0.00 | 0.00 | 0.00 | 30 | 1002.9 |
| 20260505191244 | 31 | 16 | 0.0 | 0.0 | 0.00 | 0.00 | 0.00 | 36 | |
| 20260505190744 | 30 | 16 | 0.0 | 0.0 | 0.00 | 0.00 | 0.00 | 36 | |
| 20260505190244 | 31 | 16 | 0.0 | 0.0 | 0.00 | 0.00 | 0.00 | 36 | |
| 20260505190048 | 32 | 201 | 1.6 | 14.5 | 0.00 | 0.00 | 0.00 | 33 | 1003.1 |
| 20260505185745 | 31 | 16 | 0.0 | 0.0 | 0.00 | 0.00 | 0.00 | 36 | |
| 20260505185245 | 30 | 16 | 0.0 | 0.0 | 0.00 | 0.00 | 0.00 | 38 | |
| 20260505184745 | 30 | 16 | 0.0 | 0.0 | 0.00 | 0.00 | 0.00 | 38 | |
| 20260505184547 | 31 | 341 | 0.0 | 12.9 | 0.00 | 0.00 | 0.00 | 35 | 1003.3 |
| 20260505184245 | 30 | 16 | 0.0 | 0.0 | 0.00 | 0.00 | 0.00 | 39 | |
| 20260505183745 | 30 | 16 | 0.0 | 0.0 | 0.00 | 0.00 | 0.00 | 41 | |
| 20260505183245 | 30 | 16 | 0.0 | 0.0 | 0.00 | 0.00 | 0.00 | 41 | |
| 20260505183056 | 32 | 265 | 1.6 | 11.3 | 0.00 | 0.00 | 0.00 | 35 | 1003.3 |
| 20260505182745 | 30 | 16 | 0.0 | 0.0 | 0.00 | 0.00 | 0.00 | 43 | |
| 20260505182245 | 29 | 16 | 0.0 | 0.0 | 0.00 | 0.00 | 0.00 | 44 | |
| 20260505181745 | 29 | 16 | 0.0 | 0.0 | 0.00 | 0.00 | 0.00 | 45 | |
| 20260505181540 | 31 | 341 | 0.0 | 8.0 | 0.00 | 0.00 | 0.00 | 40 | 1003.7 |
| 20260505181245 | 29 | 16 | 0.0 | 0.0 | 0.00 | 0.00 | 0.00 | 46 | |
| 20260505180745 | 29 | 16 | 0.0 | 0.0 | 0.00 | 0.00 | 0.00 | 48 | |
| 20260505180245 | 29 | 16 | 0.0 | 0.0 | 0.00 | 0.00 | 0.00 | 49 | |
| 20260505180038 | 30 | 194 | 3.2 | 11.3 | 0.00 | 0.00 | 0.00 | 47 | 1003.8 |
| 20260505175745 | 29 | 16 | 0.0 | 0.0 | 0.00 | 0.00 | 0.00 | 50 | |
| 20260505175245 | 28 | 16 | 0.0 | 0.0 | 0.00 | 0.00 | 0.00 | 51 | |
| 20260505174745 | 28 | 16 | 0.0 | 0.0 | 0.00 | 0.00 | 0.00 | 52 | |
| 20260505174532 | 29 | 216 | 1.6 | 11.3 | 0.00 | 0.00 | 0.00 | 52 | 1004.0 |
| 20260505174245 | 28 | 16 | 0.0 | 0.0 | 0.00 | 0.00 | 0.00 | 54 | |
| 20260505173745 | 27 | 16 | 0.0 | 0.0 | 0.00 | 0.00 | 0.00 | 54 | |
| 20260505173245 | 28 | 16 | 0.0 | 0.0 | 0.00 | 0.00 | 0.00 | 55 | |
| 20260505173040 | 28 | 241 | 1.6 | 11.3 | 0.00 | 0.00 | 0.00 | 56 | 1004.0 |
| 20260505172745 | 27 | 16 | 0.0 | 0.0 | 0.00 | 0.00 | 0.00 | 56 | |
| 20260505172245 | -7 | 16 | 0.0 | 0.0 | 0.00 | 0.00 | 0.00 | 57 | |
| 20260505171745 | -8 | 16 | 0.0 | 0.0 | 0.00 | 0.00 | 0.00 | 58 | |
| 20260505171526 | 27 | 213 | 6.4 | 12.9 | 0.00 | 0.00 | 0.00 | 58 | 1004.0 |
| 20260505171245 | -8 | 16 | 0.0 | 0.0 | 0.00 | 0.00 | 0.00 | 59 | |
| 20260505170745 | -8 | 16 | 0.0 | 0.0 | 0.00 | 0.00 | 0.00 | 59 | |
| 20260505170245 | -8 | 16 | 0.0 | 0.0 | 0.00 | 0.00 | 0.00 | 60 | |
| 20260505170027 | 27 | 206 | 1.6 | 12.9 | 0.00 | 0.00 | 0.00 | 62 | 1004.1 |
| 20260505165826 | -8 | 16 | 0.0 | 0.0 | 0.00 | 0.00 | 0.00 | 60 | |
| 20260505165745 | -8 | 16 | 0.0 | 0.0 | 0.00 | 0.00 | 0.00 | 60 | |
| 20260505165245 | -7 | 16 | 0.0 | 0.0 | 0.00 | 0.00 | 0.00 | 61 | |
| 20260505164745 | -7 | 16 | 0.0 | 3.2 | 0.00 | 0.00 | 0.00 | 62 | |
| 20260505164542 | 26 | 292 | 1.6 | 14.5 | 0.00 | 0.00 | 0.00 | 66 | 1004.1 |
| 20260505164245 | -7 | 330 | 0.0 | 6.4 | 0.00 | 0.00 | 0.00 | 63 | |
| 20260505163745 | -8 | 358 | 0.0 | 0.0 | 0.00 | 0.00 | 0.00 | 64 | |
| 20260505163245 | -8 | 358 | 0.0 | 0.0 | 0.00 | 0.00 | 0.00 | 65 | |
| 20260505163017 | 26 | 200 | 1.6 | 14.5 | 0.00 | 0.00 | 0.00 | 67 | 1004.1 |
| 20260505162745 | -8 | 358 | 0.0 | 3.2 | 0.00 | 0.00 | 0.00 | 65 | |
| 20260505162245 | -7 | 358 | 0.0 | 0.0 | 0.00 | 0.00 | 0.00 | 66 | |
| 20260505161745 | -8 | 358 | 0.0 | 0.0 | 0.00 | 0.00 | 0.00 | 67 | |
| 20260505161514 | 25 | 245 | 4.8 | 14.5 | 0.00 | 0.00 | 0.00 | 70 | 1004.0 |
| 20260505161245 | -9 | 5 | 0.0 | 6.4 | 0.00 | 0.00 | 0.00 | 68 | |
| 20260505160745 | -7 | 5 | 0.0 | 3.2 | 0.00 | 0.00 | 0.00 | 69 | |
| 20260505160245 | -4 | 358 | 0.0 | 9.7 | 0.00 | 0.00 | 0.00 | 69 | |
| 20260505153245 | -1 | 358 | 0.0 | 0.0 | 0.00 | 0.00 | 0.00 | 71 | |
| 20260505153010 | 24 | 201 | 1.6 | 11.3 | 0.00 | 0.00 | 0.00 | 75 | 1003.9 |
| 20260505152745 | -3 | 355 | 0.0 | 0.0 | 0.00 | 0.00 | 0.00 | 72 | |
| 20260505152245 | -5 | 355 | 0.0 | 0.0 | 0.00 | 0.00 | 0.00 | 72 | |
| 20260505151745 | -5 | 355 | 0.0 | 4.8 | 0.00 | 0.00 | 0.00 | 73 | |
| 20260505151504 | 23 | 194 | 3.2 | 14.5 | 0.00 | 0.00 | 0.00 | 76 | 1003.9 |
| 20260505151250 | -5 | 32 | 0.0 | 6.4 | 0.00 | 0.00 | 0.00 | 72 | |
| 20260505151245 | -5 | 32 | 0.0 | 6.4 | 0.00 | 0.00 | 0.00 | 72 | |
| 20260505150745 | -5 | 25 | 0.0 | 6.4 | 0.00 | 0.00 | 0.00 | 73 | |
| 20260505150318 | -7 | 25 | 0.0 | 12.9 | 0.00 | 0.00 | 0.00 | 75 | |
| 20260505150245 | -7 | 25 | 0.0 | 12.9 | 0.00 | 0.00 | 0.00 | 75 | |
| 20260505140245 | 19 | 345 | 0.0 | 0.0 | 0.00 | 0.00 | 0.00 | 80 | |
| 20260505140106 | 21 | 267 | 1.6 | 9.7 | 0.00 | 0.00 | 0.00 | 85 | 1003.9 |
| 20260505130246 | 19 | 345 | 0.0 | 0.0 | 0.00 | 0.00 | 0.00 | 83 | |
| 20260505124746 | 18 | 345 | 0.0 | 0.0 | 0.00 | 0.00 | 0.00 | 83 | |
| 20260505124553 | 20 | 215 | 0.0 | 4.8 | 0.00 | 0.00 | 0.00 | 88 | 1003.4 |
| 20260505124246 | 18 | 345 | 0.0 | 0.0 | 0.00 | 0.00 | 0.00 | 82 | |
| 20260505123746 | 18 | 345 | 0.0 | 0.0 | 0.00 | 0.00 | 0.00 | 82 | |
| 20260505123246 | 18 | 345 | 0.0 | 0.0 | 0.00 | 0.00 | 0.00 | 82 | |
| 20260505123100 | 19 | 202 | 0.0 | 3.2 | 0.00 | 0.00 | 0.00 | 88 | 1003.3 |
| 20260505122746 | 18 | 345 | 0.0 | 0.0 | 0.00 | 0.00 | 0.00 | 82 | |
| 20260505122246 | 18 | 345 | 0.0 | 0.0 | 0.00 | 0.00 | 0.00 | 82 | |
| 20260505121746 | 18 | 345 | 0.0 | 0.0 | 0.00 | 0.00 | 0.00 | 82 | |
| 20260505121552 | 19 | 196 | 0.0 | 6.4 | 0.00 | 0.00 | 0.00 | 88 | 1003.1 |
| 20260505121246 | 18 | 345 | 0.0 | 0.0 | 0.00 | 0.00 | 0.00 | 82 | |
| 20260505120746 | 18 | 345 | 0.0 | 0.0 | 0.00 | 0.00 | 0.00 | 82 | |
| 20260505120246 | 18 | 345 | 0.0 | 0.0 | 0.00 | 0.00 | 0.00 | 82 | |
| 20260505120049 | 19 | 194 | 1.6 | 6.4 | 0.00 | 0.00 | 0.00 | 87 | 1002.9 |
| 20260505115746 | 18 | 345 | 0.0 | 0.0 | 0.00 | 0.00 | 0.00 | 81 | |
| 20260505115246 | 18 | 345 | 0.0 | 0.0 | 0.00 | 0.00 | 0.00 | 81 | |
| 20260505114746 | 18 | 345 | 0.0 | 0.0 | 0.00 | 0.00 | 0.00 | 81 | |
| 20260505114549 | 19 | 165 | 0.0 | 6.4 | 0.00 | 0.00 | 0.00 | 87 | 1002.7 |
| 20260505114246 | 18 | 345 | 0.0 | 0.0 | 0.00 | 0.00 | 0.00 | 81 | |
| 20260505113746 | 18 | 345 | 0.0 | 0.0 | 0.00 | 0.00 | 0.00 | 81 | |
| 20260505113246 | 19 | 345 | 0.0 | 0.0 | 0.00 | 0.00 | 0.00 | 81 | |
| 20260505113050 | 19 | 195 | 1.6 | 9.7 | 0.00 | 0.00 | 0.00 | 87 | 1002.6 |
| 20260505112817 | 18 | 345 | 0.0 | 0.0 | 0.00 | 0.00 | 0.00 | 81 | |
| 20260505112746 | 18 | 345 | 0.0 | 0.0 | 0.00 | 0.00 | 0.00 | 81 | |
| 20260505112246 | 18 | 345 | 0.0 | 0.0 | 0.00 | 0.00 | 0.00 | 81 | |
| 20260505111746 | 18 | 345 | 0.0 | 0.0 | 0.00 | 0.00 | 0.00 | 81 | |
| 20260505111554 | 19 | 186 | 1.6 | 11.3 | 0.00 | 0.00 | 0.00 | 86 | 1002.5 |
| 20260505111246 | 18 | 345 | 0.0 | 0.0 | 0.00 | 0.00 | 0.00 | 80 | |
| 20260505110746 | 18 | 345 | 0.0 | 0.0 | 0.00 | 0.00 | 0.00 | 80 | |
| 20260505110246 | 18 | 345 | 0.0 | 0.0 | 0.00 | 0.00 | 0.00 | 80 |